This demonstration page uses our WeatherBlox Daily Observations layout. Learn more.

Left ArrowRight Arrow

Hourly Observations for January 28, 2021

Temp ( °F °C ) Dew Point ( °F °C ) Humidity (%) Winds ( mph kmh ) Pressure ( in mb ) Visibility ( mi km ) Precip ( " mm )
12:53 am 00:53 Cloudy 21 -6.1 17 -8.3 85 85 SE 6 9 30.56 1035 10 16 0.00 0.00
1:53 am 01:53 Cloudy 22 -5.6 18 -7.8 85 85 SSE 12 19 30.58 1036 10 16 0.00 0.00
2:53 am 02:53 Cloudy 23 -5 19 -7.2 85 85 S 13 20 30.59 1036 10 16 0.00 0.00
3:53 am 03:53 Cloudy 22 -5.6 18 -7.8 85 85 SSE 9 15 30.58 1036 10 16 0.00 0.00
4:53 am 04:53 Mostly Cloudy 20 -6.7 17 -8.3 89 89 S 6 9 30.59 1036 10 16 0.00 0.00
5:06 am 05:06 Partly Cloudy 20 -6.7 17 -8.3 89 89 S 7 11 30.65 1038 10 16 0.00 0.00
5:53 am 05:53 Partly Cloudy 20 -6.7 17 -8.3 89 89 SSE 6 9 30.59 1036 10 16 0.00 0.00
6:53 am 06:53 Partly Cloudy 21 -6.1 18 -7.8 88 88 SSE 9 15 30.57 1035 10 16 0.00 0.00
7:40 am 07:40 Cloudy 22 -5.6 19 -7.2 89 89 SSE 12 19 30.62 1037 10 16 0.00 0.00
7:53 am 07:53 Cloudy 22 -5.6 19 -7.2 89 89 SSE 12 19 30.58 1036 10 16 0.00 0.00
8:44 am 08:44 Partly Cloudy 24 -4.4 20 -6.7 84 84 S 13 20 30.61 1037 10 16 0.00 0.00
8:53 am 08:53 Partly Cloudy 24 -4.4 21 -6.1 88 88 SSE 14 22 30.58 1036 10 16 0.00 0.00
9:03 am 09:03 Mostly Sunny 24 -4.4 21 -6.1 88 88 SSE 17 28 30.62 1037 10 16 0.00 0.00
9:18 am 09:18 Mostly Cloudy 26 -3.3 22 -5.6 84 84 S 15 24 30.62 1037 10 16 0.00 0.00
9:53 am 09:53 Mostly Cloudy 26 -3.3 23 -5 88 88 S 17 28 30.57 1035 10 16 0.00 0.00
9:56 am 09:56 Cloudy 27 -2.8 23 -5 85 85 S 16 26 30.60 1036 10 16 0.00 0.00
10:06 am 10:06 Cloudy 27 -2.8 22 -5.6 81 81 S 18 30 30.60 1036 10 16 0.00 0.00
10:53 am 10:53 Cloudy 28 -2.2 22 -5.6 78 78 S 17 28 30.57 1035 10 16 0.00 0.00
11:53 am 11:53 Cloudy 30 -1.1 23 -5 75 75 SSE 18 30 30.55 1034 10 16 0.00 0.00
12:53 pm 12:53 Mostly Cloudy 34 1.1 25 -3.9 70 70 S 18 30 30.49 1033 10 16 0.00 0.00
1:00 pm 13:00 Partly Cloudy 33 0.6 25 -3.9 72 72 S 20 31 30.50 1033 10 16 0.00 0.00
1:02 pm 13:02 Mostly Cloudy 33 0.6 24 -4.4 70 70 S 17 28 30.50 1033 10 16 0.00 0.00
1:28 pm 13:28 Partly Cloudy 33 0.6 25 -3.9 72 72 SSE 17 28 30.48 1032 10 16 0.00 0.00
1:53 pm 13:53 Mostly Cloudy 35 1.7 25 -3.9 67 67 SSE 20 31 30.44 1031 10 16 0.00 0.00
2:53 pm 14:53 Mostly Cloudy 37 2.8 26 -3.3 65 65 SSE 17 28 30.42 1030 10 16 0.00 0.00
3:53 pm 15:53 Mostly Cloudy 37 2.8 27 -2.8 67 67 S 17 28 30.41 1030 10 16 0.00 0.00
4:53 pm 16:53 Mostly Cloudy 36 2.2 27 -2.8 70 70 S 15 24 30.40 1029 10 16 0.00 0.00
5:53 pm 17:53 Mostly Cloudy 36 2.2 27 -2.8 70 70 SSE 14 22 30.37 1029 10 16 0.00 0.00
6:53 pm 18:53 Mostly Cloudy 34 1.1 27 -2.8 76 76 SSE 13 20 30.36 1028 10 16 0.00 0.00
7:53 pm 19:53 Mostly Cloudy 34 1.1 27 -2.8 76 76 S 14 22 30.35 1028 10 16 0.00 0.00
8:53 pm 20:53 Mostly Cloudy 32 0 26 -3.3 79 79 S 12 19 30.33 1027 10 16 0.00 0.00
9:53 pm 21:53 Mostly Cloudy 32 0 26 -3.3 79 79 S 13 20 30.31 1027 10 16 0.00 0.00
10:53 pm 22:53 Mostly Clear 33 0.6 27 -2.8 78 78 S 13 20 30.30 1026 10 16 0.00 0.00
11:53 pm 23:53 Mostly Clear 31 -0.6 26 -3.3 82 82 S 12 19 30.30 1026 10 16 0.00 0.00

Powered by AerisWeather